CAPE
79 535 981 1248 857 889 812 1014 1659 1715 1607 1612 1657 1661 1826 2063 2125 2093 2023 1936 1884 1882 1986 1816 1747 1766 1699 1625 1785 1596 1933 1906 1694 1578 1594 1390 1408 1776 1723 1256 1058 962 752
176 664 1051 1126 1199 1173 1170 1229 1413 1712 1810 1706 1763 1750 1714 1848 1697 1488 1652 2170 1941 1959 1764 1500 1577 1832 1936 1840 1501 1341 1503 1653 1630 1405 1303 1487 1289 1169 1651 1261 1215 1336 1133
331 546 1130 1462 1544 1555 1432 1187 1149 1482 1573 1613 1687 1114 940 1336 1427 1791 1811 2124 1861 1559 1782 1581 1676 1852 1711 1678 1568 1199 1303 980 857 1195 1200 1049 1314 1616 1534 1662 1341 1397 1215
511 878 1037 1201 1529 1511 1581 1791 1886 1712 1371 1693 1545 1587 1601 1022 1006 1792 2038 1519 1743 1754 1810 1559 1343 1431 1623 1481 1114 976 636 673 845 1016 949 340 1133 1358 1706 1633 1176 673 843
547 786 1277 1301 1430 1499 1614 1616 1976 1917 1922 1781 1851 1299 1073 1797 1077 984 1476 2076 1640 1158 1456 1397 1412 1474 1263 1099 898 956 699 603 649 877 1013 691 692 1028 1005 1301 1201 609 1355
511 803 1566 1304 971 970 1686 1618 1640 2088 1867 1612 502 416 618 1046 1003 967 1364 1607 1372 1505 1511 1478 1307 1057 857 724 804 894 835 541 692 666 840 821 858 1043 1008 1163 1384 705 998
510 1148 1106 1106 1419 1457 1652 1843 1827 1721 1117 480 1120 813 563 835 919 1444 1744 1502 1468 1657 1572 1359 1090 872 782 878 853 636 488 262 683 561 289 405 1108 994 1078 1207 1641 1590 1138
680 824 1215 1460 1463 1716 1826 982 572 777 563 1356 1933 2164 1718 1461 1612 1689 1463 1621 1648 1441 1225 1089 830 527 467 645 796 974 1027 874 1143 815 557 514 712 756 682 1789 1721 1474 1537
649 975 1401 1342 1603 1802 2071 1926 870 700 800 1862 1884 1221 700 874 1252 1072 932 961 1028 937 760 726 796 1040 1143 1185 1270 1349 1375 1269 1274 731 619 448 467 197 452 1629 2245 1568 1082
603 1261 957 1434 1411 1324 1808 1816 905 770 772 1132 1295 1219 1076 1125 917 999 882 793 1041 1085 1240 1360 1391 1277 1101 934 1093 1193 1383 1563 941 540 406 447 319 151 784 1115 1165 977 810
786 958 914 1146 1237 1431 1734 2140 1510 643 424 421 551 647 810 849 793 850 889 854 831 984 1169 1339 1238 1048 917 1043 1324 1231 1292 1388 923 612 467 19 211 631 855 617 769 793 736
461 725 691 916 991 1177 1442 1656 1161 1071 1118 1119 974 854 908 907 882 1041 1089 1130 1537 1416 1142 1051 900 1187 1326 1062 845 957 954 708 1186 813 622 189 553 799 840 439 1104 827 666
253 384 416 428 488 531 648 842 702 924 1050 1030 796 823 905 974 1095 1322 1406 1032 171 717 1234 1368 1294 1277 1186 854 647 682 689 607 661 1094 953 853 439 255 799 1094 761 904 708
274 264 326 223 262 314 300 400 241 506 790 898 1035 1062 1087 833 963 981 1090 1055 845 1029 1234 1335 1269 955 894 867 711 559 375 322 469 146 219 1130 824 624 748 1056 997 806 746
301 418 548 451 314 279 51 33 27 225 465 739 971 1166 1029 924 797 908 876 1139 1327 1368 1390 1143 744 464 765 715 186 169 101 185 24 0 16 506 1286 1122 981 1012 883 822 832
209 316 545 625 322 356 97 53 138 443 579 644 807 893 735 738 870 1103 880 1084 1040 790 924 947 382 857 342 98 31 31 0 0 13 0 1 25 746 579 480 736 878 978 988
94 212 375 550 519 466 273 170 298 968 789 776 781 814 332 428 696 1019 796 854 858 451 377 515 796 515 53 3 0 7 0 0 0 0 0 0 0 4 56 409 586 1066 1097
37 127 213 484 545 688 670 681 1271 990 544 599 560 600 296 265 723 970 665 820 1191 396 661 605 440 211 111 2 0 0 0 0 0 0 0 0 0 0 7 372 557 630 823
98 117 176 329 388 554 620 868 1154 1013 712 509 293 89 168 310 777 982 656 790 750 254 764 643 660 758 502 30 0 0 0 0 0 0 0 0 0 0 0 0 56 525 704
97 128 175 208 290 446 507 569 731 843 758 567 419 301 229 407 856 1046 938 814 965 611 804 833 1128 913 699 213 1 0 0 0 0 0 0 0 0 0 0 0 0 0 0
152 165 86 148 275 292 311 319 402 585 659 522 349 258 236 413 1037 1077 985 712 946 776 992 1160 1329 1207 949 308 2 0 0 0 0 0 0 0 0 0 0 0 0 0 0
119 117 152 165 292 296 260 247 209 280 456 411 188 186 160 269 985 1131 948 722 876 899 1025 1495 1524 1390 881 304 19 0 0 0 0 0 0 0 0 0 0 0 0 0 0
137 140 178 191 310 331 305 274 137 6 6 0 6 94 96 480 779 1139 1170 998 718 873 978 1254 1576 1417 1290 473 1 0 0 0 10 0 0 0 0 0 0 0 0 0 0
215 172 181 160 259 290 234 311 285 290 312 263 144 67 485 776 920 1004 1102 1272 853 915 1184 1350 1471 1417 1028 1143 95 11 7 0 0 0 0 0 0 0 0 0 0 0 0
253 149 235 168 238 216 232 326 367 388 474 580 582 429 368 713 1110 1272 1145 1274 1276 1223 1285 1570 1687 1442 855 575 213 45 1 0 0 0 0 0 0 0 0 0 0 0 0
257 217 159 335 286 238 271 368 410 459 574 702 776 643 658 895 1078 1187 1395 1357 1323 1300 1452 1663 1607 1058 261 174 167 107 94 37 0 0 0 0 0 0 0 0 0 0 0
CIN
-13 -1 0 -3 0 -1 -5 -4 0 -1 -2 -3 -4 -5 0 0 0 0 0 0 0 0 0 0 0 0 0 0 0 -3 0 -2 -5 0 0 0 0 0 0 0 -1 -1 -7
-13 -1 0 -1 0 0 -6 -3 -1 0 0 0 0 0 0 0 0 -1 0 0 0 0 0 -2 0 0 0 0 -3 -9 0 0 0 -1 -5 0 -1 -9 0 -2 0 0 0
-4 -4 0 -1 0 0 -1 -6 -7 -2 -1 -2 0 -26 -39 -15 -6 0 0 0 0 -1 0 0 0 0 0 0 -4 -11 -7 -15 -20 -8 -8 -19 -7 0 0 0 -1 0 -2
-4 -1 -3 -1 0 0 0 0 0 -1 -20 -2 -8 -5 -3 -36 -41 0 0 0 0 0 0 0 -6 -3 -2 -9 -17 -22 -25 -28 -16 -19 -28 -69 -12 0 0 0 -19 -53 -27
-10 -5 0 0 -1 0 0 0 0 0 0 -1 0 -18 -40 -1 -34 -47 -11 0 -3 -35 -20 -19 -15 -11 -18 -18 -26 -23 -23 -36 -40 -28 -27 -44 -53 -11 -7 0 -12 -64 -7
-22 -6 0 -1 -21 -26 0 0 -1 0 0 -1 -95 -123 -91 -46 -48 -52 -19 -8 -23 -18 -24 -26 -24 -34 -40 -41 -40 -24 -36 -44 -41 -38 -40 -57 -43 -21 -6 0 0 -36 -29
-45 -1 -1 -10 0 -2 0 0 0 -1 -24 -108 -30 -63 -103 -66 -56 -25 -7 -16 -18 -12 -17 -27 -39 -44 -43 -38 -38 -46 -59 -73 -38 -60 -103 -84 -50 -29 -15 0 0 0 -7
-40 -20 -1 -1 0 0 0 -44 -99 -77 -107 -19 0 0 -9 -21 -17 -11 -20 -11 -9 -21 -34 -41 -53 -61 -65 -54 -47 -40 -40 -54 -53 -69 -83 -105 -77 -69 -62 -1 0 0 0
-44 -17 -5 -2 0 0 0 -1 -84 -105 -84 -8 -13 -45 -89 -71 -45 -50 -51 -46 -46 -53 -60 -55 -55 -46 -39 -39 -34 -31 -34 -42 -61 -85 -114 -116 -82 -110 -75 -4 0 0 -20
-54 -10 -50 -15 -24 -31 0 -8 -95 -103 -98 -59 -54 -52 -61 -53 -56 -37 -36 -38 -34 -37 -34 -28 -29 -43 -44 -49 -38 -26 -28 -38 -71 -99 -133 -110 -75 -98 -46 -29 -13 -10 -33
-32 -48 -72 -57 -53 -37 -19 -5 -42 -117 -139 -124 -104 -80 -65 -68 -70 -59 -50 -50 -50 -45 -29 -23 -17 -33 -44 -49 -38 -30 -31 -40 -80 -85 -119 -54 -112 -68 -59 -82 -66 -33 -27
-118 -91 -113 -103 -93 -67 -48 -43 -70 -77 -70 -64 -69 -76 -76 -77 -70 -55 -50 -50 -33 -24 -17 -23 -31 -40 -46 -61 -61 -54 -52 -71 -61 -68 -92 -104 -78 -85 -63 -98 -65 -41 -32
-189 -170 -174 -179 -167 -149 -132 -111 -129 -92 -74 -72 -90 -83 -78 -75 -66 -57 -53 -61 -106 -58 -43 -40 -47 -51 -52 -60 -60 -57 -57 -76 -54 -56 -63 -71 -82 -114 -65 -61 -50 -33 -24
-180 -181 -188 -212 -194 -183 -189 -162 -183 -133 -93 -76 -69 -81 -75 -59 -56 -54 -61 -61 -79 -78 -57 -53 -54 -69 -82 -85 -95 -78 -85 -91 -99 -122 -104 -60 -56 -49 -49 -38 -28 -21 -19
-154 -140 -131 -155 -174 -170 -240 -139 -123 -152 -121 -83 -70 -58 -72 -57 -52 -55 -54 -74 -64 -66 -56 -50 -76 -113 -106 -96 -124 -119 -134 -121 -206 0 -113 -53 -31 -24 -17 -19 -15 -16 -12
-168 -148 -118 -107 -149 -149 -184 -163 -167 -112 -86 -85 -67 -61 -62 -77 -51 -48 -50 -60 -58 -85 -74 -58 -95 -85 -106 -141 -165 -146 0 0 -225 0 -47 -38 -32 -20 -23 -21 -16 -8 -9
-239 -160 -131 -111 -111 -127 -143 -149 -130 -65 -82 -68 -59 -62 -99 -75 -63 -47 -56 -54 -61 -83 -84 -88 -86 -109 -158 -80 0 -125 0 0 0 0 0 0 0 -6 -62 -38 -26 -18 -16
-264 -213 -157 -105 -106 -93 -97 -88 -49 -58 -93 -75 -73 -69 -82 -94 -61 -49 -39 -40 -55 -95 -80 -95 -94 -126 -117 -150 0 0 0 0 0 0 0 0 0 0 -40 -32 -20 -17 -13
-246 -195 -173 -137 -130 -127 -112 -70 -49 -49 -74 -90 -119 -156 -92 -87 -59 -56 -45 -49 -90 -135 -99 -104 -80 -86 -76 -142 0 0 0 0 0 0 0 0 0 0 0 0 -62 -27 -15
-242 -191 -167 -148 -144 -135 -130 -101 -70 -61 -82 -108 -115 -105 -77 -79 -64 -43 -48 -42 -70 -109 -103 -96 -45 -79 -99 -138 -12 0 0 0 0 0 0 0 0 0 0 0 0 0 0
-221 -190 -195 -173 -154 -162 -168 -142 -123 -103 -87 -97 -108 -112 -115 -106 -65 -62 -65 -57 -74 -82 -68 -65 -60 -52 -64 -166 -15 0 0 0 0 0 0 0 0 0 0 0 0 0 0
-253 -232 -208 -197 -179 -165 -180 -191 -191 -163 -127 -121 -156 -162 -178 -169 -94 -79 -97 -90 -61 -69 -57 -47 -48 -49 -85 -158 -136 0 0 0 0 0 0 0 0 0 0 0 0 0 0
-293 -287 -251 -235 -199 -184 -196 -195 -253 -174 -133 0 -97 -261 -248 -174 -132 -83 -69 -79 -97 -90 -73 -51 -46 -45 -31 -114 -230 -56 0 0 -222 0 0 0 0 0 0 0 0 0 0
-311 -317 -295 -296 -254 -235 -257 -200 -192 -179 -171 -210 -222 -307 -208 -156 -136 -120 -95 -84 -106 -88 -67 -60 -59 -52 -74 -36 -162 -203 -158 -169 0 0 0 0 0 0 0 0 0 0 0
-323 -370 -321 -328 -296 -291 -290 -231 -215 -208 -192 -186 -199 -232 -257 -202 -154 -118 -119 -93 -89 -69 -66 -54 -51 -49 -78 -76 -95 -146 -110 0 0 0 0 0 0 0 0 0 0 0 0
-336 -356 -391 -314 -310 -338 -317 -276 -265 -243 -221 -217 -218 -251 -231 -213 -185 -170 -139 -116 -97 -67 -57 -55 -50 -71 -77 -75 -46 -136 -115 -137 0 0 0 0 0 0 0 0 0 0 0
Wind_Speed
24 21 5 12 13 14 16 17 17 17 18 19 19 17 18 19 17 19 22 22 23 23 23 21 19 21 21 21 21 22 24 25 24 23 22 22 22 22 22 21 21 21 21
29 12 7 12 14 16 16 18 19 18 18 18 17 17 18 19 18 19 22 23 22 23 24 23 23 22 22 23 23 23 24 25 24 22 21 20 18 19 21 20 20 21 21
16 3 5 11 13 14 16 17 17 17 16 19 20 19 21 20 21 21 22 23 21 21 23 23 22 22 22 22 22 22 22 23 22 20 19 18 17 17 19 19 19 20 20
11 1 2 12 13 16 15 16 15 19 21 22 21 21 22 22 22 22 22 22 22 22 21 21 22 21 22 21 19 18 19 21 20 20 19 18 17 17 18 18 19 19 19
14 12 14 16 14 14 15 19 17 21 23 23 23 23 23 23 23 22 22 21 21 20 19 19 19 19 19 18 14 10 17 18 16 15 16 16 16 16 16 17 17 18 18
24 20 11 16 21 19 20 19 21 22 23 23 22 23 24 23 23 22 20 20 20 20 20 20 18 18 17 14 12 15 15 14 15 14 13 12 14 15 15 15 15 16 16
32 23 14 23 25 22 21 21 22 21 23 23 24 25 25 25 25 23 22 22 21 20 20 19 18 17 16 14 14 15 14 13 13 12 11 12 14 13 13 13 13 13 13
31 15 27 25 25 22 24 21 20 23 23 26 25 25 24 24 24 23 22 21 19 19 18 17 15 15 14 14 16 16 14 12 12 10 9 9 12 12 12 11 11 11 12
4 1 1 28 27 26 10 22 25 26 26 25 23 23 22 21 21 21 20 19 18 17 16 15 14 13 13 13 15 16 17 11 14 18 19 12 6 8 9 8 8 9 10
21 6 27 29 28 27 27 25 27 27 25 23 22 22 21 21 20 18 17 16 15 15 14 13 13 13 12 12 13 14 14 13 13 12 12 12 12 10 9 8 11 8 8
27 27 28 29 28 28 27 26 26 25 24 23 21 21 20 18 18 16 15 14 14 14 13 13 14 13 11 11 11 11 12 12 11 9 9 9 11 11 11 10 12 8 5
30 29 28 29 29 28 26 26 26 24 22 22 21 20 19 18 17 15 14 13 12 13 13 14 13 12 11 10 9 10 11 10 10 9 8 9 10 10 10 8 8 9 9
30 30 30 30 29 29 28 27 25 23 23 21 21 19 18 16 16 15 15 13 12 14 15 14 13 11 10 9 8 9 9 9 9 9 7 8 9 8 9 6 6 7 7
31 30 30 30 30 30 28 27 25 24 23 21 20 18 16 17 16 16 15 13 14 14 15 15 13 11 11 10 8 7 7 8 9 10 8 9 8 7 6 6 4 4 5
31 31 31 31 31 30 28 27 26 24 23 21 19 18 17 17 17 17 15 14 14 15 17 16 13 12 11 13 16 11 9 8 8 11 12 9 7 5 5 4 3 3 2
31 31 32 32 32 31 29 27 25 24 23 21 19 18 17 17 17 17 15 14 16 18 17 14 12 10 12 22 25 21 23 7 10 13 14 14 10 7 5 4 2 2 2
31 31 32 33 33 31 29 27 25 24 24 23 20 18 17 17 17 16 16 17 15 14 13 12 12 14 23 24 27 24 22 20 15 17 17 18 15 11 9 6 5 5 5
31 31 33 33 33 32 29 28 26 24 23 21 20 19 18 17 16 16 15 13 13 12 12 14 15 18 20 19 18 19 22 21 18 18 19 19 17 16 15 15 12 10 10
30 31 32 33 33 32 29 27 26 24 22 20 19 18 17 17 16 17 16 15 15 13 13 12 16 17 14 15 15 21 26 24 21 22 22 21 22 21 21 22 20 19 18
31 31 31 31 31 31 29 28 27 25 24 21 20 18 18 18 18 17 16 14 12 12 11 10 9 9 10 13 15 20 24 21 24 23 24 24 25 24 25 25 24 25 26
31 31 32 30 30 29 29 28 28 27 26 24 23 20 20 20 20 18 18 15 11 9 8 7 7 7 9 14 17 22 22 16 18 24 24 24 24 24 26 27 26 28 28
31 32 32 31 29 29 27 27 27 27 27 24 22 22 21 21 20 19 17 14 10 7 5 4 4 5 8 16 20 24 26 24 19 24 23 23 24 24 27 29 29 29 31
31 31 31 31 30 30 28 25 26 28 27 24 23 22 23 21 21 18 16 14 9 4 2 3 2 4 7 15 17 22 25 24 23 22 26 25 29 28 30 31 31 31 30
30 29 30 30 30 30 28 25 24 24 23 23 22 21 21 21 19 18 16 15 12 6 1 1 5 7 13 14 14 16 18 22 22 20 18 23 27 24 28 30 31 33 30
27 27 28 29 30 31 29 27 26 25 23 21 21 22 20 20 20 17 14 12 11 6 2 2 6 10 14 17 11 15 17 21 18 19 23 22 26 25 27 28 30 34 31
27 27 27 26 29 29 29 28 27 25 23 22 23 22 21 21 19 15 10 10 10 6 3 4 8 17 22 28 9 7 10 17 17 20 21 24 23 26 29 26 31 33 32
Wind_Direction
175 178 50 63 63 63 62 61 58 55 53 55 57 54 55 55 49 50 63 66 72 74 72 58 46 55 57 57 56 60 73 84 102 108 117 116 107 116 104 93 98 118 113
131 199 56 61 64 67 65 65 65 58 55 53 51 49 49 52 50 50 64 69 69 76 79 70 66 60 59 68 70 72 84 78 111 115 117 133 143 135 119 118 112 115 114
194 212 54 61 61 62 65 64 61 55 49 56 59 53 59 59 62 62 69 69 62 63 73 71 66 64 66 64 64 69 77 84 91 115 125 136 148 147 137 125 115 115 119
84 85 53 64 61 66 60 60 52 62 68 69 67 58 63 68 70 64 67 67 66 66 62 63 65 63 70 65 50 50 49 85 107 104 109 115 127 127 120 118 115 119 125
89 80 76 76 64 59 61 72 61 73 77 74 74 72 74 76 67 73 66 65 67 62 56 56 56 50 52 47 7 294 138 115 128 134 126 120 119 122 119 117 115 116 121
108 97 70 80 92 80 79 74 79 78 82 79 73 79 83 75 74 68 63 61 63 65 65 69 59 49 45 13 326 172 164 148 136 139 144 137 134 116 119 112 115 120 118
151 178 80 102 112 96 86 83 86 80 88 84 90 91 93 98 93 84 81 81 83 83 87 95 92 83 38 301 258 209 176 167 150 159 155 144 113 114 115 115 113 118 118
162 202 136 119 117 99 106 85 83 94 92 113 130 123 123 124 127 124 123 127 133 127 133 129 128 127 136 192 264 254 192 158 124 151 147 104 91 96 115 111 107 113 120
155 210 293 142 128 121 221 96 107 114 131 143 144 144 147 146 142 136 133 131 139 145 147 142 142 149 151 173 205 232 256 133 18 11 30 52 63 68 75 82 80 121 135
112 80 131 150 151 154 144 116 138 141 145 152 153 149 147 143 140 142 145 138 144 151 155 153 159 155 153 164 197 199 193 185 167 103 65 82 114 113 62 46 360 133 138
134 135 138 152 152 148 155 153 148 154 152 154 161 152 144 150 148 147 149 151 151 158 154 155 147 147 157 161 178 194 196 170 141 138 112 114 137 129 159 156 167 155 131
147 150 147 153 156 162 166 161 161 161 167 165 160 155 153 152 148 148 153 157 164 157 152 152 161 160 157 168 186 197 196 180 155 155 143 119 113 140 151 146 156 172 178
152 155 156 160 163 164 168 166 167 169 165 161 160 157 161 158 152 151 153 164 170 159 150 145 150 158 164 166 188 205 202 164 139 130 137 113 100 127 161 147 136 169 181
157 158 160 164 166 171 176 175 174 169 168 166 166 165 160 151 149 150 156 166 164 158 146 134 141 147 130 129 137 147 153 136 102 99 103 98 116 130 140 152 138 142 176
160 164 167 168 172 175 179 180 177 173 172 172 171 173 158 146 147 146 160 165 166 148 111 114 129 126 111 88 69 89 106 121 108 76 66 79 101 127 125 142 136 156 139
165 168 171 174 176 179 178 178 180 185 184 179 174 172 163 149 148 143 149 161 155 123 106 108 130 129 102 40 15 35 25 63 82 65 55 48 59 76 91 117 136 162 97
167 167 171 176 180 179 177 181 190 193 185 177 173 171 167 161 152 145 139 115 132 133 124 122 120 88 18 25 16 32 27 29 40 35 36 36 38 49 50 63 75 61 36
167 169 173 178 181 182 184 180 184 186 177 167 174 176 183 170 155 145 138 144 134 109 85 66 54 45 38 45 51 46 33 29 34 33 31 28 30 33 32 26 28 28 20
168 171 173 176 180 180 179 174 175 176 173 167 169 174 174 178 167 163 159 158 153 147 125 105 40 41 53 54 50 39 26 31 32 27 24 24 26 22 20 13 11 8 6
174 173 173 175 179 179 180 183 190 187 189 180 179 178 182 187 183 169 166 154 147 137 131 130 110 96 79 56 43 34 30 39 33 28 22 21 14 14 9 4 5 0 355
178 177 178 176 179 176 181 186 194 194 196 201 199 193 191 195 195 174 173 170 146 130 121 115 86 83 65 42 31 22 27 35 23 18 16 14 11 8 3 358 356 352 350
180 181 181 182 179 179 181 187 193 195 203 201 199 198 194 194 192 177 177 178 164 149 119 99 97 54 37 20 11 10 8 13 20 9 12 11 6 4 356 353 353 353 349
181 182 182 182 182 183 183 183 190 206 211 203 199 197 197 193 192 186 188 190 181 149 148 30 56 26 19 13 15 3 1 5 6 14 1 4 356 357 351 347 348 348 348
182 181 182 183 184 184 183 183 183 187 190 194 193 193 194 191 191 192 197 197 197 187 163 347 352 355 351 4 14 16 13 8 7 11 20 4 359 3 358 352 350 348 347
178 179 180 182 185 187 186 187 188 192 192 191 191 194 189 190 196 196 197 193 199 199 214 335 349 348 351 355 22 21 18 8 9 4 357 2 357 359 357 353 350 346 344
178 178 178 179 185 186 187 188 190 192 191 190 193 193 193 197 200 198 194 195 204 218 255 310 339 343 339 358 6 19 23 11 8 1 358 356 357 353 352 354 349 346 345